Home   Weather   Juiz de Fora   Past weeks

Flag for Brazil Past Weather in Juiz de Fora, Minas Gerais, Brazil — Yesterday and Last 2 Weeks

Now
77 °F

Passing clouds.


Feels Like: 79 °F
Forecast: 50 / 71 °F
Wind: 10 mph from Southeast

Location: Galeao

Current Time: Jul 27, 2017 at 3:57:45 pm

Latest Report: Jul 27, 2017 at 3:00 pm


Visibility: N/A

Pressure: 30.21 "Hg (27.89 "Hg at 697m altitude)

Humidity: 51%

Dew Point: 57 °F

Location of Juiz de ForaLocation

Past Weather in Juiz de Fora — Graph

°F

Juiz de Fora Temperature Yesterday

Maximum temperature yesterday: 82 °F (at 2:00 pm)
Minimum temperature yesterday: 63 °F (at 4:00 am)
Average temperature yesterday: 71 °F

High & Low Weather Summary for the Past Weeks

 TemperatureHumidityPressure
High86 °F (Jul 17, 3:00 pm)94% (Jul 14, 7:00 am)30.33 "Hg (Jul 14, 7:00 am)
Low61 °F (Jul 15, 6:00 am)25% (Jul 17, 3:00 pm)30.04 "Hg (Jul 17, 3:00 pm)
Average70 °F73%30.21 "Hg
* Reported Jul 12 3:00 pm — Jul 27 3:00 pm, Juiz de Fora. Weather by CustomWeather, © 2017

Note: Actual official high and low records may vary slightly from our data, if they occured in-between our weather recording intervals... More about our weather records

Advertising

Juiz de Fora Weather History for the Previous 24 Hours

Scroll right to see more
 ConditionsComfort  
Time TempWeatherWind HumidityBarometerVisibility
3:00 pm
Thu, Jul 27
77 °FPassing clouds.10 mph51%30.21 "HgN/A
2:00 pm77 °FPassing clouds.13 mph51%30.21 "HgN/A
1:00 pm77 °FPassing clouds.9 mph44%30.24 "HgN/A
12:00 pm77 °FPassing clouds.2 mph54%30.27 "HgN/A
11:00 am75 °FSunny.5 mph57%30.30 "Hg10 mi
10:00 am72 °FSunny.2 mph61%30.30 "Hg10 mi
9:00 am68 °FSunny.3 mph73%30.30 "Hg10 mi
8:00 am68 °FSunny.2 mph73%30.27 "Hg10 mi
7:00 am64 °FSunny.No wind83%30.27 "Hg10 mi
6:00 am64 °FClear.2 mph88%30.24 "Hg10 mi
5:00 am63 °FClear.2 mph88%30.24 "Hg10 mi
4:00 am64 °FClear.3 mph83%30.24 "Hg10 mi
3:00 am64 °FClear.3 mph78%30.24 "Hg10 mi
2:00 am64 °FClear.2 mph78%30.24 "Hg10 mi
1:00 am66 °FClear.2 mph78%30.27 "Hg10 mi
12:00 am68 °FClear.6 mph69%30.24 "Hg10 mi
11:00 pm
Wed, Jul 26
68 °FClear.7 mph69%30.24 "Hg10 mi
10:00 pm70 °FClear.8 mph60%30.24 "Hg10 mi
9:00 pm72 °FClear.8 mph50%30.24 "Hg10 mi
8:00 pm73 °FClear.8 mph50%30.24 "Hg10 mi
7:00 pm73 °FClear.14 mph61%30.21 "Hg10 mi
6:00 pm75 °FClear.8 mph61%30.18 "Hg10 mi
5:00 pm77 °FSunny.9 mph54%30.18 "Hg10 mi
4:00 pm79 °FPassing clouds.9 mph45%30.18 "HgN/A
3:00 pm81 °FPassing clouds.5 mph34%30.18 "HgN/A
Weather by CustomWeather, © 2017

See weather overviewHow to use our weather pages